Weather History for Rockport, TX

Change the Weather History Date:

Sunday, September 15, 2013

  Actual Average Record
Temperature  
Mean Temperature 84 °F -  
Max Temperature 90 °F 88 °F 94 °F (1990)
Min Temperature 79 °F 74 °F 45 °F (2007)
Cooling Degree Days 20    
Growing Degree Days 34 (Base 50)    
Moisture  
Dew Point 76 °F    
Average Humidity 76    
Maximum Humidity 90    
Minimum Humidity 63    
Precipitation  
Precipitation 0.06 in - - ()
Sea Level Pressure  
Sea Level Pressure 29.90 in    
Wind  
Wind Speed 14 mph (East)    
Max Wind Speed 21 mph    
Max Gust Speed 40 mph    
Visibility 9 miles    
Events Rain    
Averages and records for this station are not official NWS values.
T = Trace of Precipitation, MM = Missing Value Source: NWS Daily Summary

Daily Weather History Graph

Daily Weather History Graph

Search for Another Location

Airport:

Trip Planner

Search our weather history database for the weather conditions in past years. The results will help you decide how hot, cold, wet, or windy it might be!

Date:

Astronomy

Sep. 15, 2013 Rise Set
Actual Time 7:13 AM CDT 7:32 PM CDT
Civil Twilight 6:49 AM CDT 7:56 PM CDT
Nautical Twilight 6:22 AM CDT 8:23 PM CDT
Astronomical Twilight 5:54 AM CDT 8:51 PM CDT
Moon 4:46 PM CDT (9/15) 3:09 AM CDT (9/15)
Length of Visible Light 13h 06m
Length of Day
12h 19m
Waxing Gibbous, 82% of the Moon is Illuminated
Sep 15
Waxing Gibbous
Sep 19
Full
Sep 26
Last Quarter
Oct 4
New
Oct 11
First Quarter

Hourly Weather History & Observations

Time (CDT) Temp. Heat Index Dew Point Humidity Pressure Visibility Wind Dir Wind Speed Gust Speed Precip Events Conditions
12:53 AM 82.9 °F 90.8 °F 75.9 °F 79% 29.88 in 10.0 mi East 11.5 mph - N/A   Scattered Clouds
1:53 AM 79.0 °F - 73.9 °F 84% 29.87 in 7.0 mi East 11.5 mph 24.2 mph 0.00 in Rain Light Rain
2:53 AM 79.0 °F - 75.9 °F 90% 29.86 in 10.0 mi East 10.4 mph - 0.00 in   Clear
3:53 AM 82.9 °F 90.8 °F 75.9 °F 79% 29.86 in 10.0 mi East 11.5 mph - N/A   Partly Cloudy
4:53 AM 82.9 °F 90.2 °F 75.0 °F 77% 29.85 in 10.0 mi East 15.0 mph - N/A   Clear
5:53 AM 82.9 °F 90.2 °F 75.0 °F 77% 29.86 in 10.0 mi East 12.7 mph - N/A   Scattered Clouds
6:53 AM 82.9 °F 90.8 °F 75.9 °F 79% 29.88 in 10.0 mi East 12.7 mph - N/A   Clear
7:53 AM 82.9 °F 90.8 °F 75.9 °F 79% 29.89 in 10.0 mi East 13.8 mph - N/A   Clear
8:53 AM 84.9 °F 94.1 °F 75.9 °F 74% 29.90 in 10.0 mi East 12.7 mph - N/A   Scattered Clouds
9:53 AM 86.0 °F 96.0 °F 75.9 °F 72% 29.91 in 10.0 mi East 17.3 mph - N/A   Partly Cloudy
10:53 AM 87.1 °F 97.3 °F 75.9 °F 69% 29.94 in 10.0 mi East 15.0 mph 24.2 mph N/A   Mostly Cloudy
11:53 AM 90.0 °F 101.3 °F 75.9 °F 63% 29.94 in 10.0 mi East 16.1 mph - N/A   Mostly Cloudy
12:53 PM 87.1 °F 97.3 °F 75.9 °F 69% 29.94 in 10.0 mi East 18.4 mph 25.3 mph N/A   Mostly Cloudy
1:48 PM 80.6 °F 85.4 °F 73.4 °F 79% 29.91 in 1.8 mi ESE 20.7 mph 40.3 mph 0.06 in Rain Heavy Rain
1:53 PM 80.1 °F 84.2 °F 73.0 °F 79% 29.92 in 1.5 mi East 15.0 mph 40.3 mph 0.06 in Rain Light Rain
1:57 PM 80.6 °F 85.4 °F 73.4 °F 79% 29.91 in 4.0 mi East 12.7 mph 25.3 mph 0.00 in Rain Light Rain
2:53 PM 88.0 °F 100.2 °F 77.0 °F 70% 29.89 in 10.0 mi East 18.4 mph 28.8 mph 0.00 in   Scattered Clouds
3:53 PM 87.1 °F 97.3 °F 75.9 °F 69% 29.89 in 10.0 mi East 15.0 mph - N/A   Partly Cloudy
4:53 PM 87.1 °F 97.3 °F 75.9 °F 69% 29.88 in 9.0 mi East 17.3 mph 24.2 mph N/A   Scattered Clouds
5:53 PM 86.0 °F 96.0 °F 75.9 °F 72% 29.89 in 10.0 mi East 17.3 mph - 0.00 in   Partly Cloudy
6:53 PM 84.0 °F 92.6 °F 75.9 °F 76% 29.91 in 9.0 mi East 16.1 mph 21.9 mph N/A   Clear
7:53 PM 84.0 °F 93.7 °F 77.0 °F 79% 29.92 in 10.0 mi East 13.8 mph - N/A   Clear
8:53 PM 82.9 °F 90.8 °F 75.9 °F 79% 29.93 in 10.0 mi ENE 15.0 mph - 0.00 in   Clear
9:53 PM 82.9 °F 91.8 °F 77.0 °F 82% 29.93 in 10.0 mi East 13.8 mph - N/A   Clear
10:53 PM 84.0 °F 93.7 °F 77.0 °F 79% 29.94 in 9.0 mi East 16.1 mph - N/A   Partly Cloudy
11:53 PM 82.9 °F 90.8 °F 75.9 °F 79% 29.94 in 10.0 mi East 12.7 mph - 0.00 in   Clear